Find Starlink 30169

NORAD ID: 57499 Int'l Des: 2023-113 Owner: SPXS Country: US Constellation: starlink operational
LEOCIRCULAR

Live Position

Loading 3D Globe...

About Starlink 30169

Description loading...

Upcoming Passes

Passes for default location (London). Set your location on the main map for personalized predictions.

Altitude History

Loading altitude history...

Two-Line Element Set

1 57499U 23113E 26129.96500421 .00001230 00000-0 54239-4 0 9994
2 57499 43.0039 15.8337 0002449 269.3574 90.6997 15.27571785153059
Epoch: May 9, 2026 • Age: 10 hours

Current Status

Altitude 485.8 km
Velocity 7.63 km/s
Sub-Earth Point 34.05°N, 142.38°E
Launch Date Aug 7, 2023
Age 2.7 years
Type internet

Technical Details

Classification Payload
Mass 730.00 kg
Dry Mass 700.00 kg
Total Mass 730.00 kg
Length 0.30 m
Diameter 4.10 m
Span 29.00 m
Shape Box + pan
Manufacturer SPXS
Bus Type Starlink V2M
Phase Status In Orbit
Owner/State SPXS/US

Most Searched